Regional Weather Roundup
Issued by NWS Goodland, KS

Home | Current Version | Previous Version | Text Only | Print | Product List | Glossary Off
Versions: 1 2 3 4 5 6 7 8 9 10 11 12 13 14 15 16 17 18 19 20 21 22 23 24 25 26 27 28 29 30 31 32 33 34 35 36 37 38 39 40 41 42 43 44 45 46 47 48 49 50

000
ASUS43 KGLD 081359
RWRGLD

GOODLAND FORECAST AREA HOURLY WEATHER ROUNDUP
NATIONAL WEATHER SERVICE GOODLAND KS
700 AM MST THU DEC 08 2016

...OFFICIAL OBSERVATIONS...

CITY           SKY/WX    TMP DP  RH WIND       PRES   REMARKS
GOODLAND KS    CLOUDY    -5 -11  75 N9        30.54F
HILL CITY KS   CLEAR      3  -4  72 W8        30.67R
IMPERIAL NEB   CLOUDY    -3 -10  72 NW10      30.57R WCI -20
MCCOOK NEB     CLOUDY    -5 -10  79 SW9       30.63R
AKRON CO       CLOUDY    -6 -12  75 W8        30.45R
BURLINGTON CO  CLOUDY    -3 -12  65 NW9       30.50R
LIMON CO       NOT AVBL
$$

...UNOFFICIAL OBSERVATIONS...

CITY           SKY/WX    TMP DP  RH WIND       PRES   REMARKS
COLBY KS       CLEAR      0   3 100 NW10      30.59F WCI -17
NORTON KS      CLEAR      0  -8  71 W10       30.62S WCI -17
SHARON SPRINGS   N/A      1  -5  76 NW8         N/A
KIT CARSON CO    N/A      1  -5  76 CALM        N/A
YUMA CO        FAIR      -9 -15  77 W10       30.51R WCI -28
$$




USA.gov is the U.S. government's official web portal to all federal, state and local government web resources and services.